TimePDT,TemperatureF,Dew PointF,Humidity,Sea Level PressureIn,VisibilityMPH,Wind Direction,Wind SpeedMPH,Gust SpeedMPH,PrecipitationIn,Events,Conditions,WindDirDegrees,DateUTC
12:15 AM,66.2,51.8,60,30.00,10.0,East,6.9,-,N/A,,Clear,90,2012-10-16 07:15:00
12:35 AM,66.2,51.8,60,30.00,10.0,ESE,5.8,-,N/A,,Clear,110,2012-10-16 07:35:00
12:55 AM,66.2,51.8,60,30.00,10.0,East,3.5,-,N/A,,Clear,100,2012-10-16 07:55:00
1:15 AM,64.4,51.8,64,29.99,10.0,ESE,5.8,-,N/A,,Clear,110,2012-10-16 08:15:00
1:35 AM,66.2,51.8,60,29.99,10.0,ESE,4.6,-,N/A,,Clear,110,2012-10-16 08:35:00
1:55 AM,66.2,51.8,60,29.99,10.0,ESE,4.6,-,N/A,,Clear,120,2012-10-16 08:55:00
2:15 AM,66.2,50.0,56,29.99,10.0,ESE,5.8,-,N/A,,Clear,110,2012-10-16 09:15:00
2:35 AM,64.4,50.0,59,30.00,10.0,ESE,5.8,-,N/A,,Clear,110,2012-10-16 09:35:00
2:55 AM,66.2,50.0,56,30.00,10.0,ESE,4.6,-,N/A,,Clear,120,2012-10-16 09:55:00
3:15 AM,64.4,50.0,59,30.00,10.0,ESE,6.9,-,N/A,,Clear,120,2012-10-16 10:15:00
3:35 AM,64.4,50.0,59,30.00,10.0,ESE,4.6,-,N/A,,Clear,110,2012-10-16 10:35:00
3:55 AM,64.4,50.0,59,29.99,10.0,East,5.8,-,N/A,,Clear,100,2012-10-16 10:55:00
4:15 AM,64.4,48.2,56,29.99,10.0,East,6.9,-,N/A,,Clear,100,2012-10-16 11:15:00
4:35 AM,64.4,48.2,56,29.99,10.0,East,3.5,-,N/A,,Clear,90,2012-10-16 11:35:00
4:55 AM,64.4,48.2,56,29.98,10.0,Calm,Calm,-,N/A,,Clear,0,2012-10-16 11:55:00
5:15 AM,64.4,48.2,56,29.98,10.0,ESE,4.6,-,N/A,,Clear,110,2012-10-16 12:15:00
5:35 AM,64.4,48.2,56,29.98,10.0,East,9.2,-,N/A,,Clear,100,2012-10-16 12:35:00
6:15 AM,64.4,48.2,56,29.98,10.0,ESE,9.2,-,N/A,,Clear,110,2012-10-16 13:15:00
6:35 AM,64.4,48.2,56,29.98,10.0,East,6.9,-,N/A,,Clear,90,2012-10-16 13:35:00
7:15 AM,64.4,48.2,56,29.99,10.0,East,8.1,-,N/A,,Clear,90,2012-10-16 14:15:00
7:35 AM,64.4,48.2,56,29.99,10.0,ESE,5.8,-,N/A,,Clear,110,2012-10-16 14:35:00
7:55 AM,64.4,48.2,56,29.99,10.0,East,3.5,-,N/A,,Clear,100,2012-10-16 14:55:00
8:15 AM,66.2,48.2,52,30.00,10.0,ESE,3.5,-,N/A,,Clear,110,2012-10-16 15:15:00
8:35 AM,68.0,48.2,49,30.00,10.0,SE,4.6,-,N/A,,Clear,130,2012-10-16 15:35:00
8:55 AM,69.8,48.2,46,30.01,10.0,ESE,4.6,-,N/A,,Clear,120,2012-10-16 15:55:00
9:15 AM,71.6,50.0,46,30.01,10.0,SSE,4.6,-,N/A,,Clear,150,2012-10-16 16:15:00
9:35 AM,71.6,48.2,43,30.01,10.0,SE,4.6,-,N/A,,Clear,130,2012-10-16 16:35:00
9:55 AM,73.4,48.2,41,30.02,10.0,SE,5.8,-,N/A,,Clear,140,2012-10-16 16:55:00
10:15 AM,73.4,48.2,41,30.02,10.0,South,5.8,-,N/A,,Clear,170,2012-10-16 17:15:00
10:55 AM,75.2,48.2,38,30.01,10.0,Calm,Calm,-,N/A,,Clear,0,2012-10-16 17:55:00
11:15 AM,77.0,48.2,36,30.01,10.0,Calm,Calm,-,N/A,,Clear,0,2012-10-16 18:15:00
11:35 AM,78.8,48.2,34,30.01,10.0,Calm,Calm,-,N/A,,Clear,0,2012-10-16 18:35:00
12:15 PM,80.6,51.8,37,30.00,10.0,SW,4.6,-,N/A,,Clear,230,2012-10-16 19:15:00
12:35 PM,80.6,51.8,37,30.00,10.0,West,5.8,-,N/A,,Clear,270,2012-10-16 19:35:00
12:55 PM,82.4,51.8,35,29.99,10.0,WSW,5.8,-,N/A,,Clear,250,2012-10-16 19:55:00
1:15 PM,80.6,53.6,39,29.98,10.0,WSW,5.8,-,N/A,,Clear,240,2012-10-16 20:15:00
1:35 PM,82.4,53.6,37,29.97,10.0,WNW,8.1,-,N/A,,Clear,290,2012-10-16 20:35:00
1:55 PM,80.6,55.4,42,29.95,10.0,WSW,6.9,-,N/A,,Clear,240,2012-10-16 20:55:00
2:15 PM,82.4,55.4,39,29.95,10.0,WSW,3.5,-,N/A,,Clear,250,2012-10-16 21:15:00
2:35 PM,82.4,55.4,39,29.94,10.0,WNW,5.8,-,N/A,,Clear,290,2012-10-16 21:35:00
2:55 PM,82.4,55.4,39,29.94,10.0,West,5.8,-,N/A,,Clear,270,2012-10-16 21:55:00
3:15 PM,82.4,55.4,39,29.94,10.0,Calm,Calm,-,N/A,,Clear,0,2012-10-16 22:15:00
3:35 PM,82.4,55.4,39,29.94,10.0,West,8.1,-,N/A,,Clear,280,2012-10-16 22:35:00
4:15 PM,82.4,55.4,39,29.93,10.0,WNW,5.8,-,N/A,,Clear,290,2012-10-16 23:15:00
4:35 PM,82.4,55.4,39,29.93,10.0,Calm,Calm,-,N/A,,Clear,0,2012-10-16 23:35:00
4:55 PM,82.4,55.4,39,29.92,10.0,NW,5.8,-,N/A,,Clear,310,2012-10-16 23:55:00
5:15 PM,80.6,53.6,39,29.92,10.0,WNW,6.9,-,N/A,,Clear,290,2012-10-17 00:15:00
5:35 PM,80.6,53.6,39,29.91,10.0,Calm,Calm,-,N/A,,Clear,0,2012-10-17 00:35:00
5:55 PM,80.6,51.8,37,29.91,10.0,Calm,Calm,-,N/A,,Clear,0,2012-10-17 00:55:00
6:15 PM,78.8,50.0,36,29.91,10.0,Calm,Calm,-,N/A,,Clear,0,2012-10-17 01:15:00
6:35 PM,77.0,48.2,36,29.91,10.0,Calm,Calm,-,N/A,,Clear,0,2012-10-17 01:35:00
6:55 PM,71.6,48.2,43,29.91,10.0,Calm,Calm,-,N/A,,Clear,0,2012-10-17 01:55:00
7:15 PM,69.8,48.2,46,29.91,10.0,Calm,Calm,-,N/A,,Clear,0,2012-10-17 02:15:00
7:35 PM,64.4,48.2,56,29.91,10.0,Calm,Calm,-,N/A,,Clear,0,2012-10-17 02:35:00
8:15 PM,62.6,48.2,59,29.92,10.0,Calm,Calm,-,N/A,,Clear,0,2012-10-17 03:15:00
8:35 PM,64.4,48.2,56,29.92,10.0,Calm,Calm,-,N/A,,Clear,0,2012-10-17 03:35:00
8:55 PM,73.4,50.0,44,29.92,10.0,Calm,Calm,-,N/A,,Clear,0,2012-10-17 03:55:00
9:15 PM,73.4,50.0,44,29.92,10.0,NE,3.5,-,N/A,,Clear,40,2012-10-17 04:15:00
9:35 PM,71.6,50.0,46,29.92,10.0,Calm,Calm,-,N/A,,Clear,0,2012-10-17 04:35:00
9:55 PM,66.2,48.2,52,29.92,10.0,Calm,Calm,-,N/A,,Clear,0,2012-10-17 04:55:00
10:15 PM,66.2,48.2,52,29.92,10.0,Calm,Calm,-,N/A,,Clear,0,2012-10-17 05:15:00
10:35 PM,64.4,48.2,56,29.91,10.0,Calm,Calm,-,N/A,,Clear,0,2012-10-17 05:35:00
10:55 PM,59.0,46.4,63,29.91,10.0,Calm,Calm,-,N/A,,Clear,0,2012-10-17 05:55:00
11:15 PM,64.4,48.2,56,29.91,10.0,Calm,Calm,-,N/A,,Clear,0,2012-10-17 06:15:00
11:35 PM,64.4,48.2,56,29.91,10.0,Calm,Calm,-,N/A,,Clear,0,2012-10-17 06:35:00
11:55 PM,62.6,48.2,59,29.91,10.0,Calm,Calm,-,N/A,,Clear,0,2012-10-17 06:55:00